Flag for U.S.A. Weather past 2 weeks in Richmond, Virginia, U.S.A.

Now
65 °F

Light rain. Fog.


Feels Like: 65 °F
Forecast: 68 / 78 °F
Wind: 6 mph from Northeast

Location: Richmond International Airport

Current Time: Aug 2, 2014 at 1:02:25 AM

Latest Report: Aug 1, 2014 at 11:54 PM


Visibility: 3 mi

Pressure: 30.15 "Hg

Humidity: 91%

Dew point: 62 °F

Location of RichmondLocation

Historic Weather in Richmond — Graph

°F

Richmond temperature yesterday

Maximum temperature yesterday: 77 °F (at 12:54 PM)
Minimum temperature yesterday: 64 °F (at 10:54 PM)
Average temperature yesterday: 72 °F

Past Weeks' High & Low Weather Summary

 TemperatureHumidityPressure
High96 °F (Jul 23, 2:54 PM)96% (Jul 22, 5:54 AM)30.23 "Hg (Jul 22, 5:54 AM)
Low63 °F (Jul 30, 6:54 AM)28% (Jul 18, 2:54 PM)29.63 "Hg (Jul 28, 3:54 AM)
Average77 °F67%30.03 "Hg
* Reported Jul 17 11:54 PM — Aug 1 11:54 PM, Richmond, Weather by CustomWeather, © 2014

Note: Actual official high and low records may vary slightly from our data, if they occured in-between our weather recording intervals... More about our weather records

Advertising

Richmond weather history for previous 24 hours

 ConditionsComfort  
Time TempWeatherWind HumidityBarometerVisibility
11:54 PM
Aug 1
65 °FLight rain. Fog.6 mph91%30.15 "Hg3 mi
10:54 PM64 °FHeavy rain. Fog.9 mph94%30.16 "Hg2 mi
9:54 PM67 °FRain. Fog.9 mph87%30.16 "Hg3 mi
8:54 PM68 °FLight rain. Fog.No wind87%30.15 "Hg5 mi
7:54 PM70 °FLight rain. Fog.5 mph87%30.15 "Hg4 mi
6:54 PM72 °FLight rain. Fog.5 mph87%30.15 "Hg4 mi
5:54 PM72 °FLight rain. Fog.3 mph84%30.16 "Hg5 mi
4:54 PM74 °FLight rain. Fog.7 mph85%30.14 "Hg5 mi
3:54 PM74 °FLight rain. More clouds than sun.6 mph82%30.16 "Hg6 mi
2:54 PM75 °FLight rain. Mostly cloudy.5 mph85%30.19 "Hg6 mi
1:54 PM77 °FMore clouds than sun.7 mph74%30.20 "Hg10 mi
12:54 PM77 °FMore clouds than sun.8 mph77%30.18 "Hg10 mi
11:54 AM76 °FOvercast.8 mph82%30.19 "Hg7 mi
10:54 AM74 °FOvercast.No wind82%30.21 "Hg8 mi
9:54 AM74 °FLight rain. Overcast.5 mph76%30.20 "Hg8 mi
8:54 AM73 °FLight rain. Overcast.No wind79%30.19 "Hg8 mi
7:54 AM73 °FMore clouds than sun.No wind81%30.19 "Hg6 mi
6:54 AM72 °FLight rain. Mostly cloudy.No wind84%30.19 "Hg5 mi
5:54 AM71 °FOvercast.No wind87%30.16 "Hg8 mi
4:54 AM71 °FOvercast.3 mph87%30.15 "Hg7 mi
3:54 AM72 °FLight rain. Overcast.5 mph84%30.15 "Hg9 mi
2:54 AM72 °FLight rain. Overcast.5 mph87%30.17 "Hg9 mi
1:54 AM74 °FLight rain. Overcast.7 mph85%30.17 "Hg9 mi
Weather by CustomWeather, © 2014

See weather overviewHow to use our weather pages